• Join FlightAware (Why Join?)
  • Login
  • US Flag 
07:33AM EST


 

Airport Tracker/Info


-or-


 

Live Flight TrackerFlight Track Log ✈ SWA641 ✈ 29-Apr-2013 ✈ KMSP - KSTL

Flight Track Log - Related Links

Times and Time Zones

All times are in EDT time to prevent confusion due to time zone crossing. See the SWA641 flight status page for this flight to view local times or setup timezone preferences in your user account.

Time Position Orientation Groundspeed Altitude Reporting Facility
EDT Latitude Longitude Course Direction KTS MPH feet Rate Location/Type
10:43AM 44.9000 -93.2667 241° Southwest 178 205 2,800  Level Minneapolis TRACON
10:43AM 44.8897 -93.2928 241° Southwest 193 222 3,800 3,191 Climbing Minneapolis Center
10:45AM 44.8464 -93.3519 224° Southwest 224 258 7,800 3,048 Climbing Minneapolis Center
10:46AM 44.7969 -93.3444 174° South 233 268 10,100 2,371 Climbing Minneapolis Center
10:47AM 44.7092 -93.2772 151° Southeast 327 376 12,700 3,242 Climbing Minneapolis Center
10:48AM 44.6092 -93.1972 150° Southeast 356 410 16,800 3,122 Climbing Minneapolis Center
10:49AM 44.5206 -93.1289 151° Southeast 365 420 19,100 2,585 Climbing Minneapolis Center
10:50AM 44.4258 -93.0617 153° Southeast 375 432 22,100 2,855 Climbing Minneapolis Center
10:51AM 44.3267 -92.9892 152° Southeast 394 453 25,000 2,516 Climbing Minneapolis Center
10:52AM 44.2225 -92.9133 152° Southeast 410 472 27,300 2,177 Climbing Minneapolis Center
10:53AM 44.1128 -92.8336 152° Southeast 437 503 29,500 2,341 Climbing Minneapolis Center
10:54AM 43.9778 -92.7375 153° Southeast 452 520 32,100 2,146 Climbing Minneapolis Center
10:55AM 43.8658 -92.6567 152° Southeast 455 524 33,900 1,790 Climbing Minneapolis Center
10:56AM 43.7500 -92.5881 157° South 459 528 35,800 1,935 Climbing Minneapolis Center
10:57AM 43.6278 -92.5722 175° South 439 505 37,900 1,456 Climbing Minneapolis Center
10:58AM 43.5092 -92.5519 173° South 436 502 39,100 971 Climbing Minneapolis Center
10:59AM 43.3617 -92.5289 174° South 447 514 40,100 927 Climbing Minneapolis Center
11:00AM 43.2133 -92.5064 174° South 453 521 41,000 439 Climbing Minneapolis Center
11:01AM 43.0922 -92.4867 173° South 446 513 41,000  Level Minneapolis Center
11:02AM 42.9714 -92.4672 173° South 445 512 41,000  Level Minneapolis Center
11:03AM 42.8497 -92.4406 171° South 449 517 41,000  Level Minneapolis Center
11:04AM 42.7033 -92.4069 170° South 451 519 41,000  Level Minneapolis Center
11:05AM 42.5822 -92.3808 171° South 449 517 41,000  Level Minneapolis Center
11:06AM 42.4619 -92.3556 171° South 447 514 41,000  Level Minneapolis Center
11:08AM 42.3422 -92.3308 171° South 444 511 41,000  Level Minneapolis Center
11:09AM 42.1961 -92.2992 171° South 446 513 41,000  Level Minneapolis Center
11:09AM 42.0981 -92.2753 170° South 448 516 41,000  Level Chicago Center
11:10AM 41.9753 -92.2483 171° South 450 518 41,000  Level Chicago Center
11:11AM 41.8528 -92.2233 171° South 450 518 41,000 -242 Level Chicago Center
11:12AM 41.7303 -92.1958 170° South 451 519 40,500 -823 Descending Chicago Center
11:13AM 41.5883 -92.1678 172° South 435 501 39,300 -1,016 Descending Chicago Center
11:14AM 41.4692 -92.1417 171° South 437 503 38,400 -919 Descending Chicago Center
11:15AM 41.3506 -92.1167 171° South 436 502 37,400 -927 Descending Chicago Center
11:16AM 41.2258 -92.0925 172° South 434 499 36,500 -927 Descending Chicago Center
11:18AM 41.1050 -92.0672 171° South 440 506 35,500 -919 Descending Chicago Center
11:19AM 40.9831 -92.0414 171° South 445 512 34,600 -1,597 Descending Chicago Center
11:20AM 40.8600 -92.0153 171° South 448 516 32,200 -1,161 Descending Chicago Center
11:22AM 40.6128 -91.8522 153° Southeast 457 526 31,000 -387 Descending Chicago Center
11:23AM 40.5006 -91.7697 151° Southeast 459 528 31,000  Level Kansas City Center
11:24AM 40.3897 -91.6844 150° Southeast 461 531 31,000  Level Kansas City Center
11:25AM 40.2783 -91.5997 150° Southeast 462 532 31,000  Level Kansas City Center
11:26AM 40.1678 -91.5164 150° Southeast 461 531 31,000 -823 Level Kansas City Center
11:27AM 40.0375 -91.4167 150° Southeast 456 525 29,300 -1,984 Descending Kansas City Center
11:28AM 39.9328 -91.3375 150° Southeast 443 510 26,900 -2,274 Descending Kansas City Center
11:29AM 39.8319 -91.2628 150° Southeast 427 491 24,600 -2,323 Descending Kansas City Center
11:30AM 39.7244 -91.1817 150° Southeast 414 476 22,100 -2,323 Descending Kansas City Center
11:31AM 39.6325 -91.1039 147° Southeast 400 460 19,800 -2,226 Descending Kansas City Center
11:32AM 39.5422 -91.0294 148° Southeast 389 448 17,500 -2,129 Descending Kansas City Center
11:33AM 39.4542 -90.9597 149° Southeast 376 433 15,400 -2,081 Descending Kansas City Center
11:34AM 39.3678 -90.8894 148° Southeast 370 426 13,200 -2,032 Descending Kansas City Center
11:35AM 39.2853 -90.8258 149° Southeast 354 407 11,200 -1,790 Descending Kansas City Center
11:36AM 39.1958 -90.7589 150° Southeast 317 365 9,500 -1,597 Descending Kansas City Center
11:37AM 39.1256 -90.7083 151° Southeast 296 341 7,900 -1,440 Descending Kansas City Center
11:38AM 39.0553 -90.6586 151° Southeast 291 335 6,500 -1,248 Descending Kansas City Center
11:39AM 38.9897 -90.6108 150° Southeast 278 320 5,300 -1,306 Descending Kansas City Center
11:40AM 38.9311 -90.5683 151° Southeast 258 297 3,800 -1,065 Descending Kansas City Center
11:41AM 38.8756 -90.5286 151° Southeast 244 281 3,100 -677 Descending Kansas City Center
11:42AM 38.8131 -90.4831 150° Southeast 228 262 2,400 -677 Descending Kansas City Center
11:43AM 38.7839 -90.4406 131° Southeast 188 216 1,700 -677 Descending Kansas City Center
11:44AM 38.7647 -90.3994 121° Southeast 156 180 1,000 -581 Descending Kansas City Center
11:45AM 38.7417 -90.3550 124° Southeast 144 166 500 -484 Descending Kansas City Center
11:47AM 38.7333 -90.3667 270° West  Level FlightAware Approximate